Weather History for Karlovy Vary, Czech Republic

Change the Weather History Date:

Sunday, March 16, 2014

  Actual Average (EDQM) Record (EDQM)
Temperature  
Mean Temperature 42 °F -  
Max Temperature 47 °F 42 °F 64 °F (2012)
Min Temperature 37 °F 31 °F 5 °F (2013)
Degree Days  
Heating Degree Days 23    
Moisture  
Dew Point 41 °F    
Average Humidity 90    
Maximum Humidity 100    
Minimum Humidity 67    
Precipitation  
Precipitation 0.12 in - - ()
Sea Level Pressure  
Sea Level Pressure 29.87 in    
Wind  
Wind Speed 15 mph ()    
Max Wind Speed 21 mph    
Max Gust Speed 33 mph    
Visibility 3.4 miles    
Events Rain    
Averages and records for this station are not official NWS values.
T = Trace of Precipitation, MM = Missing Value Source: Averaged Metar Reports

Daily Weather History Graph

Daily Weather History Graph

Search for Another Location

Airport:

Trip Planner

Search our weather history database for the weather conditions in past years. The results will help you decide how hot, cold, wet, or windy it might be!

Date:

Astronomy

Mar. 16, 2014 Rise Set
Actual Time 6:20 AM CET 6:14 PM CET
Civil Twilight 5:48 AM CET 6:46 PM CET
Nautical Twilight 5:10 AM CET 7:24 PM CET
Astronomical Twilight 4:31 AM CET 8:04 PM CET
Moon 6:18 PM CET (3/16) 5:54 AM CET (3/16)
Length of Visible Light 12h 58m
Length of Day
11h 54m
Full, 100% of the Moon is Illuminated
Mar 16
Full
Mar 16
Full
Mar 24
Last Quarter
Mar 30
New
Apr 7
First Quarter

Hourly Weather History & Observations

Time (CET) Temp. Windchill Dew Point Humidity Pressure Visibility Wind Dir Wind Speed Gust Speed Precip Events Conditions
12:00 AM 39 °F - 33 °F 73%  in 25 mi West 15.7 mph - - Rain Light Rain
12:00 AM 39.2 °F 31.2 °F 33.8 °F 81% 29.92 in 6.2 mi WSW 13.8 mph - N/A Rain Light Rain
1:00 AM 40 °F - 33 °F 67%  in 25 mi West 15.7 mph - - Rain Light Rain
1:00 AM 39.2 °F 31.6 °F 33.8 °F 81% 29.92 in 6.2 mi WSW 12.7 mph 26.5 mph N/A Rain Light Rain
2:00 AM 39 °F - 34 °F 77%  in 25 mi West 20.1 mph - - Rain Light Rain
2:00 AM 39.2 °F 30.8 °F 33.8 °F 81% 29.89 in 6.2 mi WSW 15.0 mph - N/A Rain Light Rain
3:00 AM 38 °F - 36 °F 90%  in 3 mi West 17.9 mph - - Rain Light Rain
3:00 AM 37.4 °F 28.2 °F 35.6 °F 93% 29.83 in 3.1 mi WSW 16.1 mph - N/A Rain Light Rain
4:00 AM 39 °F - 37 °F 88%  in 2 mi West 17.9 mph - - Rain Light Rain
4:00 AM 39.2 °F 30.2 °F 37.4 °F 93% 29.80 in 2.5 mi West 17.3 mph 28.8 mph N/A Rain Light Rain
4:30 AM 39.2 °F 30.5 °F 37.4 °F 93% 29.80 in 1.9 mi West 16.1 mph 28.8 mph N/A Rain Light Rain
5:00 AM 39 °F - 38 °F 93%  in 2 mi West 17.9 mph - - Rain Light Rain
5:00 AM 39.2 °F 30.2 °F 37.4 °F 93% 29.80 in - WSW 17.3 mph - N/A Rain Light Rain
5:30 AM 39.2 °F 29.8 °F 39.2 °F 100% 29.80 in 3.1 mi WSW 18.4 mph 31.1 mph N/A Rain Light Rain
6:00 AM 41 °F - 38 °F 87%  in 6 mi West 15.7 mph - - Rain Light Rain
6:00 AM 41.0 °F 32.5 °F 39.2 °F 93% 29.80 in 6.2 mi West 17.3 mph - N/A   Mostly Cloudy
6:39 AM 41.0 °F 32.8 °F 39.2 °F 93% 29.80 in 5.0 mi WSW 16.1 mph - N/A   Light Drizzle
7:00 AM 42 °F - 39 °F 86%  in 6 mi West 15.7 mph - - Rain Light Drizzle
7:00 AM 41.0 °F 32.2 °F 39.2 °F 93% 29.80 in 5.6 mi West 18.4 mph 31.1 mph N/A   Light Drizzle
7:30 AM 42.8 °F 34.3 °F 39.2 °F 87% 29.80 in 4.3 mi WSW 19.6 mph 32.2 mph N/A   Light Drizzle
8:00 AM 42 °F - 40 °F 88%  in 4 mi West 15.7 mph - - Rain Light Drizzle
8:00 AM 42.8 °F 35.1 °F 39.2 °F 87% 29.80 in 4.3 mi West 16.1 mph - N/A   Light Drizzle
8:30 AM 42.8 °F 35.1 °F 39.2 °F 87% 29.80 in 3.7 mi WSW 16.1 mph - N/A   Light Drizzle
9:00 AM 42 °F - 40 °F 91%  in 2 mi West 17.9 mph - - Rain Light Drizzle
9:00 AM 42.8 °F 35.1 °F 41.0 °F 93% 29.80 in 2.5 mi West 16.1 mph 28.8 mph N/A   Light Drizzle
9:30 AM 42.8 °F 34.5 °F 41.0 °F 93% 29.83 in 1.6 mi West 18.4 mph 29.9 mph N/A Rain Light Rain
10:00 AM 43 °F - 41 °F 91%  in 1 mi West 17.9 mph - - Rain Light Rain
10:00 AM 42.8 °F 34.5 °F 41.0 °F 93% 29.83 in 0.9 mi West 18.4 mph 31.1 mph N/A Rain Light Rain
10:30 AM 42.8 °F 34.3 °F 42.8 °F 100% 29.83 in 1.1 mi West 19.6 mph 31.1 mph N/A Rain Light Rain
11:00 AM 43 °F - 42 °F 93%  in 1 mi West 20.1 mph - - Rain Light Rain
11:00 AM 42.8 °F 34.0 °F 42.8 °F 100% 29.83 in 1.2 mi West 20.7 mph 32.2 mph N/A Rain Light Rain
11:30 AM 44.6 °F 37.2 °F 42.8 °F 93% 29.83 in 2.5 mi West 17.3 mph - N/A Rain Light Rain
12:00 PM 44 °F - 42 °F 92%  in 2 mi West 15.7 mph - - Rain Light Rain
12:00 PM 44.6 °F 37.4 °F 42.8 °F 93% 29.86 in 1.9 mi West 16.1 mph - N/A Rain Light Rain
12:30 PM 44.6 °F 37.4 °F 42.8 °F 93% 29.86 in 1.2 mi West 16.1 mph 29.9 mph N/A Rain Rain
1:00 PM 45 °F - 43 °F 90%  in 1 mi West 17.9 mph - - Rain Light Rain
1:00 PM 44.6 °F 37.4 °F 42.8 °F 93% 29.86 in 1.2 mi West 16.1 mph - N/A Rain Light Rain
1:30 PM 44.6 °F 37.2 °F 42.8 °F 93% 29.86 in 1.9 mi West 17.3 mph - N/A Rain Light Rain
2:00 PM 45 °F - 43 °F 91%  in 3 mi West 17.9 mph - - Rain Light Rain
2:00 PM 44.6 °F 37.2 °F 42.8 °F 93% 29.86 in 2.8 mi West 17.3 mph 28.8 mph N/A   Overcast
2:30 PM 44.6 °F 36.6 °F 42.8 °F 93% 29.86 in 2.8 mi West 19.6 mph - N/A   Overcast
3:00 PM 45 °F - 43 °F 91%  in 3 mi West 17.9 mph - -   Mist
3:00 PM 44.6 °F 36.9 °F 42.8 °F 93% 29.86 in 3.1 mi West 18.4 mph 33.4 mph N/A   Overcast
3:23 PM 44.6 °F 37.2 °F 42.8 °F 93% 29.89 in 3.7 mi West 17.3 mph 31.1 mph N/A   Light Drizzle
3:30 PM 44.6 °F 37.2 °F 42.8 °F 93% 29.89 in 2.5 mi West 17.3 mph 31.1 mph N/A Rain Light Rain
4:00 PM 44 °F - 43 °F 96%  in 2 mi West 15.7 mph - - Rain Light Rain
4:00 PM 44.6 °F 36.9 °F 42.8 °F 93% 29.89 in 2.5 mi WSW 18.4 mph - N/A Rain Light Rain
4:30 PM 44.6 °F 37.4 °F 42.8 °F 93% 29.89 in 2.5 mi WSW 16.1 mph - N/A Rain Light Rain
5:00 PM 45 °F - 43 °F 90%  in 2 mi West 17.9 mph - - Rain Light Rain
5:00 PM 44.6 °F 37.4 °F 42.8 °F 93% 29.92 in 2.2 mi WSW 16.1 mph 29.9 mph N/A Rain Light Rain
5:30 PM 44.6 °F 37.4 °F 42.8 °F 93% 29.92 in 1.9 mi West 16.1 mph - N/A Rain Light Rain
6:00 PM 45 °F - 43 °F 92%  in 2 mi West 13.4 mph - - Rain Light Rain
6:00 PM 44.6 °F 37.4 °F 42.8 °F 93% 29.92 in 1.9 mi West 16.1 mph - N/A Rain Light Rain
6:30 PM 44.6 °F 37.8 °F 44.6 °F 100% 29.95 in 3.1 mi West 15.0 mph 27.6 mph N/A   Overcast
7:00 PM 46 °F - 44 °F 88%  in 3 mi West 11.2 mph - - Rain Light Rain
7:00 PM 46.4 °F 40.4 °F 44.6 °F 93% 29.95 in 3.1 mi West 13.8 mph - N/A   Overcast
7:30 PM 46.4 °F 40.1 °F 42.8 °F 87% 29.95 in 5.0 mi West 15.0 mph 27.6 mph N/A   Mostly Cloudy
8:00 PM 46 °F - 43 °F 86%  in 6 mi West 11.2 mph - -   Mostly Cloudy
8:00 PM 46.4 °F 40.7 °F 42.8 °F 87% 29.95 in 6.2 mi West 12.7 mph - N/A   Mostly Cloudy
9:00 PM 47 °F - 43 °F 82%  in 6 mi West 13.4 mph - -   Mostly Cloudy
9:00 PM 46.4 °F 40.7 °F 42.8 °F 87% 29.98 in 6.2 mi West 12.7 mph - N/A   Mostly Cloudy
10:00 PM 47 °F - 42 °F 79%  in 6 mi West 15.7 mph - -   Mostly Cloudy
10:00 PM 46.4 °F 40.4 °F 42.8 °F 87% 29.98 in 6.2 mi West 13.8 mph - N/A   Mostly Cloudy
11:00 PM 47 °F - 41 °F 73%  in 7 mi West 11.2 mph - -   Mostly Cloudy
11:00 PM 46.4 °F 39.5 °F 41.0 °F 81% 29.98 in 6.2 mi West 17.3 mph - N/A   Mostly Cloudy